• In Deutschland
  • Länderverzeichnis
  • Für 7 Tage
  • Wassertemperatur
  • Satellitenkarten
  • Wetterkarte
  • Widgets
  • user-avatar
    Anmelden

    Stündliche Wetter Haradok

    Heute, 26 September, Dienstag

    Zeit Temperatur Niederschläge Wind Luftdruck Luftfeuchtigkeit
    00:00 +8°C° 0 mm 2 m/S 764 mmHg 87%
    01:00 +8°C° 0 mm 2 m/S 764 mmHg 87%
    02:00 +7°C° 0 mm 2 m/S 764 mmHg 89%
    03:00 +7°C° 0 mm 2 m/S 764 mmHg 89%
    04:00 +6°C° 0 mm 2 m/S 764 mmHg 90%
    05:00 +6°C° 0 mm 2 m/S 764 mmHg 91%
    06:00 +7°C° 0 mm 2 m/S 764 mmHg 87%
    07:00 +8°C° 0 mm 2 m/S 764 mmHg 83%
    08:00 +9°C° 0 mm 2 m/S 765 mmHg 77%
    09:00 +12°C° 0 mm 2 m/S 765 mmHg 72%
    10:00 +13°C° 0 mm 2 m/S 765 mmHg 66%
    11:00 +14°C° 0 mm 3 m/S 765 mmHg 60%
    12:00 +16°C° 0 mm 3 m/S 765 mmHg 59%
    13:00 +16°C° 0 mm 3 m/S 765 mmHg 58%
    14:00 +18°C° 0 mm 3 m/S 765 mmHg 55%
    15:00 +17°C° 0 mm 2 m/S 765 mmHg 61%
    16:00 +16°C° 0 mm 2 m/S 765 mmHg 66%
    17:00 +15°C° 0 mm 2 m/S 765 mmHg 72%
    18:00 +13°C° 0 mm 2 m/S 765 mmHg 77%
    19:00 +12°C° 0 mm 2 m/S 765 mmHg 83%
    20:00 +10°C° 0 mm 2 m/S 765 mmHg 88%
    21:00 +9°C° 0 mm 2 m/S 765 mmHg 90%
    22:00 +8°C° 0 mm 2 m/S 765 mmHg 91%
    23:00 +8°C° 0 mm 2 m/S 766 mmHg 93%

    Morgen, 27 September, Mittwoch

    Zeit Temperatur Niederschläge Wind Luftdruck Luftfeuchtigkeit
    00:00 +8°C° 0 mm 2 m/S 766 mmHg 93%
    01:00 +7°C° 0 mm 2 m/S 766 mmHg 94%
    02:00 +7°C° 0 mm 2 m/S 766 mmHg 95%
    03:00 +7°C° 0 mm 2 m/S 766 mmHg 95%
    04:00 +6°C° 0 mm 2 m/S 766 mmHg 95%
    05:00 +6°C° 0 mm 2 m/S 767 mmHg 95%
    06:00 +7°C° 0 mm 2 m/S 767 mmHg 92%
    07:00 +8°C° 0 mm 2 m/S 767 mmHg 88%
    08:00 +9°C° 0 mm 2 m/S 767 mmHg 85%
    09:00 +10°C° 0 mm 2 m/S 767 mmHg 78%
    10:00 +13°C° 0 mm 2 m/S 767 mmHg 71%
    11:00 +15°C° 0 mm 2 m/S 767 mmHg 64%
    12:00 +15°C° 0 mm 2 m/S 767 mmHg 61%
    13:00 +16°C° 0 mm 2 m/S 767 mmHg 58%
    14:00 +17°C° 0 mm 2 m/S 766 mmHg 55%
    15:00 +16°C° 0 mm 1 m/S 766 mmHg 60%
    16:00 +15°C° 0 mm 1 m/S 766 mmHg 65%
    17:00 +14°C° 0 mm 1 m/S 766 mmHg 70%
    18:00 +13°C° 0 mm 1 m/S 766 mmHg 75%
    19:00 +12°C° 0 mm 1 m/S 766 mmHg 80%
    20:00 +10°C° 0 mm 1 m/S 766 mmHg 85%
    21:00 +10°C° 0 mm 1 m/S 766 mmHg 87%
    22:00 +9°C° 0 mm 1 m/S 766 mmHg 89%
    23:00 +9°C° 0 mm 1 m/S 766 mmHg 91%

    übermorgen, 28 September, Donnerstag

    Zeit Temperatur Niederschläge Wind Luftdruck Luftfeuchtigkeit
    00:00 +9°C° 0 mm 1 m/S 766 mmHg 91%
    01:00 +8°C° 0 mm 1 m/S 766 mmHg 92%
    02:00 +7°C° 0 mm 0 m/S 766 mmHg 92%
    03:00 +7°C° 0 mm 0 m/S 766 mmHg 93%
    04:00 +6°C° 0 mm 0 m/S 766 mmHg 93%
    05:00 +6°C° 0 mm 0 m/S 766 mmHg 93%
    06:00 +8°C° 0 mm 1 m/S 766 mmHg 90%
    07:00 +9°C° 0 mm 1 m/S 766 mmHg 87%
    08:00 +10°C° 0 mm 1 m/S 766 mmHg 84%
    09:00 +11°C° 0 mm 1 m/S 766 mmHg 78%
    10:00 +13°C° 0 mm 1 m/S 766 mmHg 73%
    11:00 +14°C° 0 mm 2 m/S 766 mmHg 67%
    12:00 +14°C° 0 mm 2 m/S 766 mmHg 67%
    13:00 +14°C° 0 mm 2 m/S 766 mmHg 66%
    14:00 +14°C° 0 mm 2 m/S 766 mmHg 66%
    15:00 +14°C° 0 mm 2 m/S 766 mmHg 70%
    16:00 +13°C° 0 mm 2 m/S 766 mmHg 74%
    17:00 +12°C° 0 mm 2 m/S 765 mmHg 78%
    18:00 +10°C° 0 mm 2 m/S 765 mmHg 81%
    19:00 +9°C° 0 mm 2 m/S 766 mmHg 84%
    20:00 +9°C° 0 mm 2 m/S 766 mmHg 86%
    21:00 +9°C° 0 mm 1 m/S 766 mmHg 87%
    22:00 +9°C° 0 mm 1 m/S 766 mmHg 88%
    23:00 +8°C° 0 mm 1 m/S 766 mmHg 89%

    29 September, Freitag

    Zeit Temperatur Niederschläge Wind Luftdruck Luftfeuchtigkeit
    00:00 +8°C° 0 mm 1 m/S 766 mmHg 89%
    01:00 +7°C° 0 mm 1 m/S 765 mmHg 89%
    02:00 +7°C° 0 mm 1 m/S 765 mmHg 89%
    03:00 +7°C° 0 mm 1 m/S 765 mmHg 90%
    04:00 +6°C° 0 mm 1 m/S 765 mmHg 90%
    05:00 +5°C° 0 mm 0 m/S 765 mmHg 91%
    06:00 +6°C° 0 mm 0 m/S 765 mmHg 87%
    07:00 +7°C° 0 mm 0 m/S 765 mmHg 84%
    08:00 +8°C° 0 mm 0 m/S 765 mmHg 80%
    09:00 +11°C° 0 mm 1 m/S 764 mmHg 74%
    10:00 +12°C° 0 mm 1 m/S 764 mmHg 68%
    11:00 +14°C° 0 mm 1 m/S 764 mmHg 62%
    12:00 +15°C° 0 mm 2 m/S 763 mmHg 60%
    13:00 +15°C° 0 mm 2 m/S 763 mmHg 59%
    14:00 +16°C° 0 mm 2 m/S 762 mmHg 57%
    15:00 +15°C° 0 mm 2 m/S 762 mmHg 63%
    16:00 +14°C° 0 mm 2 m/S 761 mmHg 69%
    17:00 +14°C° 0 mm 2 m/S 761 mmHg 74%
    18:00 +12°C° 0 mm 2 m/S 761 mmHg 80%
    19:00 +10°C° 0 mm 2 m/S 761 mmHg 86%
    20:00 +9°C° 0 mm 2 m/S 760 mmHg 92%
    21:00 +9°C° 0 mm 2 m/S 760 mmHg 94%
    22:00 +8°C° 0 mm 2 m/S 760 mmHg 95%
    23:00 +8°C° 0 mm 2 m/S 760 mmHg 96%

    30 September, Samstag

    Zeit Temperatur Niederschläge Wind Luftdruck Luftfeuchtigkeit
    00:00 +8°C° 0 mm 2 m/S 760 mmHg 97%
    01:00 +7°C° 0 mm 2 m/S 760 mmHg 97%
    02:00 +7°C° 0 mm 2 m/S 760 mmHg 97%
    03:00 +6°C° 0 mm 2 m/S 760 mmHg 97%
    04:00 +6°C° 0 mm 2 m/S 760 mmHg 97%
    05:00 +6°C° 0 mm 2 m/S 760 mmHg 97%
    06:00 +6°C° 0 mm 2 m/S 760 mmHg 95%
    07:00 +7°C° 0 mm 2 m/S 760 mmHg 93%
    08:00 +8°C° 0 mm 2 m/S 760 mmHg 91%
    09:00 +9°C° 0 mm 2 m/S 760 mmHg 84%
    10:00 +12°C° 0 mm 2 m/S 760 mmHg 77%
    11:00 +13°C° 0 mm 2 m/S 760 mmHg 70%
    12:00 +13°C° 0 mm 2 m/S 760 mmHg 67%
    13:00 +14°C° 0 mm 2 m/S 760 mmHg 65%
    14:00 +14°C° 0 mm 2 m/S 760 mmHg 62%
    15:00 +14°C° 0 mm 1 m/S 760 mmHg 65%
    16:00 +13°C° 0 mm 1 m/S 760 mmHg 68%
    17:00 +12°C° 0 mm 1 m/S 760 mmHg 71%
    18:00 +12°C° 0 mm 1 m/S 760 mmHg 72%
    19:00 +11°C° 0 mm 1 m/S 760 mmHg 73%
    20:00 +11°C° 0 mm 1 m/S 760 mmHg 75%
    21:00 +11°C° 0 mm 1 m/S 760 mmHg 75%
    22:00 +10°C° 0 mm 1 m/S 760 mmHg 76%
    23:00 +10°C° 0 mm 1 m/S 760 mmHg 77%

    1 Oktober, Sonntag

    Zeit Temperatur Niederschläge Wind Luftdruck Luftfeuchtigkeit
    00:00 +10°C° 0 mm 1 m/S 760 mmHg 77%
    01:00 +10°C° 0 mm 1 m/S 760 mmHg 78%
    02:00 +10°C° 0 mm 1 m/S 760 mmHg 78%
    03:00 +10°C° 0 mm 1 m/S 760 mmHg 77%
    04:00 +10°C° 0 mm 1 m/S 760 mmHg 77%
    05:00 +10°C° 0 mm 1 m/S 760 mmHg 77%
    06:00 +10°C° 0 mm 1 m/S 761 mmHg 77%
    07:00 +10°C° 0 mm 1 m/S 761 mmHg 77%
    08:00 +10°C° 0 mm 1 m/S 761 mmHg 76%
    09:00 +9°C° 0 mm 2 m/S 761 mmHg 74%
    10:00 +10°C° 0 mm 2 m/S 761 mmHg 71%
    11:00 +10°C° 0 mm 2 m/S 761 mmHg 68%
    12:00 +10°C° 0 mm 2 m/S 761 mmHg 67%
    13:00 +11°C° 0 mm 1 m/S 761 mmHg 66%
    14:00 +11°C° 0 mm 1 m/S 761 mmHg 64%
    15:00 +11°C° 0 mm 1 m/S 761 mmHg 66%
    16:00 +11°C° 0 mm 1 m/S 761 mmHg 69%
    17:00 +10°C° 0 mm 1 m/S 761 mmHg 71%
    18:00 +10°C° 0 mm 1 m/S 761 mmHg 72%
    19:00 +9°C° 0 mm 1 m/S 761 mmHg 73%
    20:00 +9°C° 0 mm 1 m/S 761 mmHg 74%
    21:00 +9°C° 0 mm 1 m/S 761 mmHg 74%
    22:00 +8°C° 0 mm 1 m/S 761 mmHg 75%
    23:00 +8°C° 0 mm 1 m/S 761 mmHg 76%
    Mehr zeigen